User: anonymous   Login
Location: Nirvana
(45.0297°N, 77.2628°W)
Time: 04:36:31
(UTC-04:00)
Language:

H-2A R/B - Orbit

View from above orbital plane
View from above orbital plane
View from above satellite
View from above satellite

Ground track
Ground track

The orbit data is extracted from the following two-line orbital elements,

1 27601U 02056E   14295.82241685  .00000423  00000-0  17114-3 0  2164
2 27601 098.4746 015.4903 0071476 281.9583 184.6479 14.31433304619257
Epoch (UTC): 22 October 2014 19:44:16
Eccentricity: 0.0071476
inclination: 98.4746°
perigee height: 736 km
apogee height: 838 km
right ascension of ascending node: 15.4903°
argument of perigee: 281.9583°
revolutions per day: 14.31433304
mean anomaly at epoch: 184.6479°
orbit number at epoch: 61925

The dashed part of the orbit path shows where the satellite is in the earth's shadow,  

DLR